Regional Weather Roundup
Issued by NWS

Home | Current Version | Previous Version | Graphics & Text | Print | Product List | Glossary Off
Versions: 1 2 3 4 5 6 7 8 9 10 11 12 13 14 15 16 17 18 19 20 21 22 23 24 25 26 27

000
ASUS45 KGTF 060910
RWRMT
MONTANA HOURLY WEATHER ROUNDUP
NATIONAL WEATHER SERVICE GREAT FALLS MT
300 AM MDT WED MAY 06 2015

NOTE: "FAIR" INDICATES FEW OR NO CLOUDS BELOW 12000 FEET WITH NO
SIGNIFICANT WEATHER AND/OR OBSTRUCTIONS TO VISIBILITY.

MTZ001>007-043-061000-
WEST OF THE DIVIDE

CITY           SKY/WX    TMP DP  RH WIND       PRES   REMARKS
KALISPELL      SUNNY     30  24  78 N5        29.92R
MISSOULA       CLEAR     38  24  57 VRB3      29.94S
BUTTE          LGT RAIN  41  34  76 NW3       29.90F
DEER LODGE       N/A     43  27  52 NE7       29.94R
EUREKA           N/A     32  25  74 CALM      29.93S
HAMILTON         N/A     36  25  64 S1        29.92S
LIBBY            N/A     30  25  80 CALM      29.94R
$$

MTZ008-052>055-061000-
SOUTHWEST MONTANA

CITY           SKY/WX    TMP DP  RH WIND       PRES   REMARKS
BOZEMAN        CLOUDY    48  37  65 W12       29.83S
DILLON         LGT RAIN  43  39  86 NE7       29.87S
$$

MTZ009-010-012-014-046-048-049-054-061000-
EAST SLOPES AND CENTRAL MONTANA

CITY           SKY/WX    TMP DP  RH WIND       PRES   REMARKS
CUT BANK       CLEAR     36  19  50 NW15      29.86R WCI  27
GREAT FALLS    MOCLDY    42  32  67 W9        29.84R
MALMSTROM AFB  CLOUDY    48  31  52 NW8       29.85R
HELENA         CLOUDY    50  27  40 SW10      29.86R
$$

MTZ011-013-016-021-045-047-050-051-061000-
NORTH CENTRAL MONTANA

CITY           SKY/WX    TMP DP  RH WIND       PRES   REMARKS
HAVRE          CLOUDY    50  34  54 NW10      29.79R
LEWISTOWN      CLOUDY    51  47  86 W8        29.80S
CHINOOK          N/A     52  45  76 W10       29.78S
FORT BENTON      N/A     50  34  53 W8        29.86R
$$

MTZ017>020-022>042-056>058-061-062-061000-
EASTERN PLAINS

CITY           SKY/WX    TMP DP  RH WIND       PRES   REMARKS
BAKER          PTCLDY    52  49  89 SE5       29.73S
BILLINGS       LGT RAIN  53  49  86 NW8       29.76S
GLASGOW        PTCLDY    56  47  71 NW14      29.67R
JORDAN           N/A     55  47  74 N12       29.69S
LIVINGSTON     CLOUDY    50  43  77 W6        29.80F
MILES CITY     CLOUDY    57  49  74 S9        29.66F
SIDNEY         PTCLDY    55  48  76 CALM      29.69F
WOLF POINT     PTCLDY    52  47  83 E7        29.65F
BIG TIMBER       N/A     52  43  71 SW8       29.79S
PLENTYWOOD       N/A     55  50  82 SE10      29.69S
POPLAR           N/A     55  52  88 SE8       29.66F
$$

REGIONAL REPORTS...DAKOTAS

CITY           SKY/WX    TMP DP  RH WIND       PRES   REMARKS
WILLISTON      CLEAR     59  51  75 SE12      29.70F
MINOT          CLEAR     52  45  77 SE7       29.80F
DICKINSON      CLOUDY    55  53  93 SE10      29.74F
BEACH          FAIR      54  54 100 S16       29.72S
CROSBY         FAIR      55  54  94 SE14      29.72F
WATFORD CITY   FAIR      55  50  82 CALM      29.71S
BISMARCK       CLOUDY    58  31  35 SE12      29.83F
GRAND FORKS    MOCLDY    57  51  80 SE8       29.94F
FARGO          CLOUDY    61  55  81 SE17      29.94F
BUFFALO SD       N/A     57  51  80 SE18      29.67F
RAPID CITY     LGT RAIN  53  52  96 SE5       29.75F FOG
$$

REGIONAL REPORTS...WYOMING/IDAHO/WASHINGTON

CITY           SKY/WX    TMP DP  RH WIND       PRES   REMARKS
GILLETTE       MOCLDY    51  47  86 S13       29.71S
SHERIDAN       PTCLDY    52  44  74 NW13      29.71S
BUFFALO WY     PTCLDY    47  44  90 NW3       29.73F
CODY           CLOUDY    52  43  71 N10       29.78S
YELLOWSTONE LA   N/A     32  29  88 CALM      29.90F
IDAHO FALLS    PTCLDY    48  42  80 S9        29.80S
SALMON         MOCLDY    48  28  46 N5        29.87S
BOISE          PTCLDY    47  24  40 W12       29.87S
SPOKANE        PTCLDY    46  26  45 CALM      29.93F
$$

REGIONAL REPORTS...ALBERTA

CITY           SKY/WX    TMP DP  RH WIND       PRES   REMARKS
EDMONTON       FRZ RAIN  32  30  93 NW18      29.90R VSB 3/8 WCI  20
CALGARY        MOCLDY    36  30  80 N21G29    29.90R WCI  24
LETHBRIDGE     CLEAR     39  34  81 NW15      29.90R WCI  31
MEDICINE HAT   MOCLDY    46  37  71 NW20G25   29.82R
$$

REGIONAL REPORTS...SASKATCHEWAN

CITY           SKY/WX    TMP DP  RH WIND       PRES   REMARKS
SWIFT CURRENT  LGT RAIN  54  37  54 W16G22    29.70F
REGINA         CLOUDY    55  48  76 SE13G18   29.70S
SASKATOON      MOCLDY    50  46  87 E10       29.68F
$$



USA.gov is the U.S. government's official web portal to all federal, state and local government web resources and services.